Sidney, NE

1:19 AM MDT on April 24, 2018 (GMT -0600)
Sidney Municipal

Weather History for KSNY - September, 2013

Change the Weather History Date:

Sunday, September 1, 2013

  Actual Average Record
Temperature  
Mean Temperature 69 °F 70 °F  
Max Temperature 86 °F 85 °F 98 °F (2012)
Min Temperature 52 °F 55 °F 34 °F (1965)
Degree Days  
Heating Degree Days 0 1  
Month to date heating degree days 0 1  
Since 1 July heating degree days 9 12  
Cooling Degree Days 4 6  
Month to date cooling degree days 4 6  
Year to date cooling degree days 756 748  
Growing Degree Days 20 (Base 50)    
Moisture  
Dew Point 44 °F    
Average Humidity 47    
Maximum Humidity 72    
Minimum Humidity 22    
Precipitation  
Precipitation 0.00 in 0.06 in 1.05 in (1951)
Month to date precipitation 0.00 0.06  
Year to date precipitation 8.18 15.22  
Sea Level Pressure  
Sea Level Pressure 30.03 in    
Wind  
Wind Speed 7 mph (ESE)    
Max Wind Speed 13 mph    
Max Gust Speed 17 mph    
Visibility 10 miles    
Events      
T = Trace of Precipitation, MM = Missing Value Source: NWS Daily Summary

Daily Weather History Graph

Daily Weather History Graph

Search for Another Location

Airport or City:

Astronomy

Sep. 01, 2013 Rise Set
Actual Time 6:18 AM MDT 7:24 PM MDT
Civil Twilight 5:50 AM MDT 7:52 PM MDT
Nautical Twilight 5:16 AM MDT 8:25 PM MDT
Astronomical Twilight 4:41 AM MDT 9:01 PM MDT
Moon 2:41 AM MDT (9/1) 5:03 PM MDT (9/1)
Length of Visible Light 14h 01m
Length of Day
13h 05m
Waning Crescent, 13% of the Moon is Illuminated
Sep 1
Waning Crescent
Sep 5
New
Sep 12
First Quarter
Sep 19
Full
Sep 26
Last Quarter

Hourly Weather History & Observations

Time (MDT) Temp. Dew Point Humidity Pressure Visibility Wind Dir Wind Speed Gust Speed Precip Events Conditions
12:53 AM 63.0 °F 52.0 °F 67% 29.98 in 10.0 mi Calm Calm - N/A   Clear
1:53 AM 61.0 °F 51.1 °F 70% 29.98 in 10.0 mi NNE 5.8 mph - N/A   Clear
2:53 AM 62.1 °F 51.1 °F 67% 29.97 in 10.0 mi NNE 9.2 mph - N/A   Clear
3:53 AM 62.1 °F 51.1 °F 67% 29.98 in 10.0 mi NNE 10.4 mph - N/A   Clear
4:53 AM 62.1 °F 48.9 °F 62% 29.99 in 10.0 mi North 8.1 mph - N/A   Clear
5:53 AM 57.0 °F 46.9 °F 69% 30.03 in 10.0 mi Calm Calm - N/A   Clear
6:53 AM 55.9 °F 46.9 °F 72% 30.07 in 10.0 mi NNW 4.6 mph - N/A   Clear
7:53 AM 64.9 °F 46.0 °F 50% 30.07 in 10.0 mi NE 4.6 mph - N/A   Clear
8:53 AM 69.1 °F 44.1 °F 40% 30.08 in 10.0 mi East 6.9 mph - N/A   Clear
9:53 AM 73.0 °F 42.1 °F 33% 30.09 in 10.0 mi East 9.2 mph - N/A   Clear
10:53 AM 77.0 °F 39.9 °F 26% 30.08 in 10.0 mi Variable 3.5 mph - N/A   Clear
11:53 AM 79.0 °F 42.1 °F 27% 30.08 in 10.0 mi SSE 10.4 mph - N/A   Clear
12:53 PM 82.0 °F 41.0 °F 23% 30.06 in 10.0 mi Variable 5.8 mph - N/A   Clear
1:53 PM 84.0 °F 41.0 °F 22% 30.04 in 10.0 mi SSW 6.9 mph - N/A   Clear
2:53 PM 84.0 °F 41.0 °F 22% 30.01 in 10.0 mi Calm Calm - N/A   Clear
3:53 PM 84.9 °F 41.0 °F 21% 29.99 in 10.0 mi SSE 9.2 mph - N/A   Clear
4:53 PM 84.9 °F 42.1 °F 22% 29.99 in 10.0 mi SSW 6.9 mph - N/A   Clear
5:53 PM 84.0 °F 41.0 °F 22% 30.00 in 10.0 mi SSE 6.9 mph - N/A   Clear
6:53 PM 81.0 °F 41.0 °F 24% 30.01 in 10.0 mi SE 6.9 mph - N/A   Clear
7:53 PM 72.0 °F 41.0 °F 33% 30.01 in 10.0 mi SE 9.2 mph - N/A   Clear
8:53 PM 68.0 °F 42.1 °F 39% 30.03 in 10.0 mi SE 9.2 mph - N/A   Clear
9:53 PM 64.9 °F 44.1 °F 47% 30.04 in 10.0 mi SSE 8.1 mph - N/A   Clear
10:53 PM 66.9 °F 43.0 °F 42% 30.03 in 10.0 mi SSE 11.5 mph - N/A   Clear
11:53 PM 61.0 °F 44.1 °F 54% 30.04 in 10.0 mi South 8.1 mph - N/A   Clear